DW2373 Thessaloniki GR current weather conditions

sailwx.info

Wind from 203 at 0 knots gusting 6

Air temperature 11.7° C
Dewpoint 1.6° C

Last reported at 2014-Nov-23 11:03 UTC.
Time now 2014-Nov-23 12:24 UTC

Location: N 40°31' E 022°58'.
View on Google Maps.

See reports from other nearby stations

  
Tides and Currents Weather Stations Pressure Air Temp Water Temp Dewpoint Dewpoint Depression Visibility Wind Speed Wind Dir Waves Ship Positions
date/time (UTC)wind fromknots sea level pressurealtimeterstation pressurevisibilityair tempwater tempwave heightnotes
2014-Nov-23 11:03 203 0 gusting 6 11.7
2014-Nov-23 10:03 298 1 gusting 4 11.1
2014-Nov-23 09:03 256 1 gusting 4 11.1
2014-Nov-23 08:03 179 0 gusting 2 10.6
2014-Nov-23 07:03 118 0 gusting 1 9.4
2014-Nov-23 06:03 045 8.3
2014-Nov-23 05:03 085 0 gusting 5 8.9
2014-Nov-23 04:03 116 2 gusting 4 8.9
2014-Nov-23 03:03 135 9.4
2014-Nov-23 02:03 045 0 gusting 2 8.9
2014-Nov-23 01:03 180 9.4
2014-Nov-23 00:03 112 9.4
2014-Nov-22 23:03 098 10.0
2014-Nov-22 22:03 053 0 gusting 2 10.0
2014-Nov-22 21:03 098 1 gusting 4 12.2
2014-Nov-22 20:03 068 1 gusting 4 12.8
2014-Nov-22 19:03 084 1 gusting 2 12.8
2014-Nov-22 18:03 225 12.8
2014-Nov-22 17:03 062 1 gusting 5 13.3
2014-Nov-22 16:03 057 0 gusting 7 13.3
2014-Nov-22 15:03 315 1 gusting 6 13.3
2014-Nov-22 14:03 316 1 gusting 6 14.4
2014-Nov-22 13:03 300 5 gusting 6 14.4
2014-Nov-22 12:03 310 2 gusting 6 14.4
2014-Nov-22 11:03 330 5 gusting 8 13.9
2014-Nov-22 10:03 352 1 gusting 6 13.3
2014-Nov-22 09:03 346 1 gusting 8 14.4
2014-Nov-22 08:03 339 0 gusting 8 11.1
2014-Nov-22 07:03 330 2 gusting 11 11.1
2014-Nov-22 06:03 017 2 gusting 6 11.1
2014-Nov-22 05:03 357 1 gusting 6 11.1
2014-Nov-22 04:03 031 0 gusting 6 11.1
2014-Nov-22 03:03 340 2 gusting 7 11.1
2014-Nov-22 02:03 320 1 gusting 6 11.1
2014-Nov-22 01:03 335 2 gusting 7 11.7
2014-Nov-22 00:03 044 4 gusting 6 11.7
2014-Nov-21 23:03 308 2 gusting 8 12.2
2014-Nov-21 22:03 062 4 gusting 11 11.7
2014-Nov-21 21:03 317 4 gusting 8 12.2
2014-Nov-21 20:03 346 2 gusting 8 12.8
2014-Nov-21 19:03 015 3 gusting 6 12.8
2014-Nov-21 18:03 005 1 gusting 11 12.8
2014-Nov-21 17:03 337 2 gusting 7 13.3
2014-Nov-21 16:03 305 2 gusting 12 13.3
2014-Nov-21 15:03 306 5 gusting 18 13.9
2014-Nov-21 14:03 314 9 gusting 21 14.4
2014-Nov-21 13:03 334 9 gusting 18 15.0
2014-Nov-21 12:03 332 7 gusting 18 15.0